"Pseudo-MPEC" for C0FM6R5

Created 2023 Jan 31 12:22:03 UT using Find_Orb

Click here for an explanation of pseudo-MPECs

 
 Astrometry: 
     C0FM6R5* C2023 01 256[,gFu-=8?b)]NFmO!6B=F^`=29Cl_H\@U$f*e^B*F%ht%[IqFCqV00
     C0FM6R5  C2023 01 25*^hweb64yWC#w'h[#s\(aV-vZ4G1do`ZFLB]:An]DE3'A`=IGs0wV00
     C0FM6R5  C2023 01 25-xD30bwYHWtT=4O1KN0i;7d!.3Astrometry(Dy5vC#,+Tf-fF\@V00
     C0FM6R5  C2023 01 25=JI(Pw8s8*^98K;tI:dF7gRvur*ar@[5j+qt\0nu:redacted;RhV00
     C0FM6R5 mC2023 01 25RW*''xkM6XY2-Rpo$6*n[ieULuIGiU5v3s#:LnAN3,y\1ig%JVj\V00
     C0FM6R5 mC2023 01 25@))/9s+F.@r;4\;=pHRY+s80*\jfsclickJ2fCqliZf6'PsCmiEcV00
     C0FM6R5 mC2023 01 25uXIIJYS,hereIs/vCuforcfF/0vL=#V6JYyg.16W[IdhL^wI[LfrV00
     C0FM6R5 mC2023 01 25u2yq8On,)re]:MnP+PexplanationTIaoOCuoEmk1FIEqH)Dgf^;V00
     C0FM6R5 1C2023 01 29.19103906 24 12.953+59 06 20.88   ~1T5M 20.52GVNEOCPG96
     C0FM6R5 1C2023 01 29.19623406 24 13.363+59 06 14.04   ~1T5M 20.47GVNEOCPG96
     C0FM6R5 1C2023 01 29.20143606 24 13.792+59 06 07.09   ~1T5M 21.10GVNEOCPG96
     C0FM6R5 1C2023 01 29.79844 06 25 18.74 +58 52 13.3    ~1TKb 21.3 VXNEOCP033
     C0FM6R5 1C2023 01 29.80173 06 25 19.03 +58 52 08.6    ~1TKb 21.2 VXNEOCP033
     C0FM6R5 1C2023 01 29.80503 06 25 19.31 +58 52 04.1    ~1TKb 20.8 VXNEOCP033
     C0FM6R5 KC2023 01 31.15160706 27 53.995+58 19 16.60   ~1V4M 22.2 GVNEOCPH01
     C0FM6R5 KC2023 01 31.15694206 27 54.498+58 19 08.81   ~1V4M 21.8 GVNEOCPH01
     C0FM6R5 KC2023 01 31.16514906 27 55.302+58 18 56.56   ~1V4M 22.0 GVNEOCPH01
     C0FM6R5 KC2023 01 31.17202506 27 55.916+58 18 46.08   ~1V4M 21.2 GVNEOCPH01

Station data:
(033) Karl Schwarzschild Observatory, Tautenburg  (N50.980137 E11.711240)
   Germany.  Observers S. Melnikov, C. Hoegner, B. Stecklum. Measurer B.
   Stecklum. 1.34-m f/3 Schmidt + CCD.
(G96) Mt. Lemmon Survey  (N32.442751 W110.788720)  US/Arizona.  Observers T.
   A. Pruyne, B. M. Africano, E. J. Christensen, G. A. Farneth, D. C. Fuls,
   A. R. Gibbs, A. D. Grauer, H. Gröller, J. A. Johnson, R. A. Kowalski, S.
   M. Larson, G. J. Leonard, D. Rankin, R. L. Seaman, F. C. Shelly, K. W.
   Wierzchoś. 1.5-m reflector + 10K CCD.
(H01) Magdalena Ridge Observatory, Socorro  (N33.984833 W107.189333)  US/New
   Mexico.  Observers W. H. Ryan, E. V. Ryan. Measurer W. H. Ryan. 2.4-m
   f/8.9 reflector + CCD.
(V00) Kitt Peak-Bok  (N31.963125 W111.600190)  US/Arizona.  Observers T. A.
   Pruyne, B. M. Africano, E. J. Christensen, G. A. Farneth, D. C. Fuls, A.
   R. Gibbs, A. D. Grauer, H. Gröller, J. A. Johnson, R. A. Kowalski, S. M.
   Larson, G. J. Leonard, D. Rankin, R. L. Seaman, F. C. Shelly, K. W.
   Wierzchoś. 2.25-m reflector + CCD.

Orbital elements:  C0FM6R5
   Perihelion 2023 Feb 24.28836 +/- 0.0762 TT =  6:55:14 (JD 2459999.78836)
Epoch 2023 Jan 31.0 TT = JDT 2459975.5   Earth MOID: 0.1325      AutoNEOCP
M 353.54330342 +/- 0.13             (J2000 ecliptic)
n   0.26583497 +/- 0.00647          Peri.  166.81733 +/- 0.12
a   2.39549149 +/- 0.0389           Node   342.06999 +/- 0.09
e   0.5334690 +/- 0.00713           Incl.   10.99980 +/- 0.09
P   3.71                   H 22.90  G  0.15   U  9.4
q 1.11757083 +/- 0.00108    Q 3.67341215 +/- 0.0767
From 18 observations 2023 Jan. 25-31; mean residual 0".13
Residuals in arcseconds: 
230125 V00  .02-  .11-    230125 V00  .01+  .04-    230129 033  .11+  .05-    
230125 V00  .04+  .28+    230125 V00  .02-  .18+    230129 033  .09-  .11-    
230125 V00  .08+  .12+    230129 G96  .04-  .02+    230131 H01  .07+  .05-    
230125 V00  .04+  .00     230129 G96  .07-  .03+    230131 H01  .02-  .07+    
230125 V00  .02-  .16-    230129 G96  .04+  .03-    230131 H01  .08+  .04+    
230125 V00  .17-  .31-    230129 033  .23+  .22+    230131 H01  .29-  .13-    

Ephemerides (geocentric):
Date (UTC) HH   RA             Dec           delta  r     elong  mag " sig PA
---- --------  ------------   ------------  ------ ------ -----  --- --------
2023 01 31 12  06 28 34.976   +58 10 01.41  .23307 1.1524 131.3 21.7 .083 137
2023 01 31 13  06 28 40.102   +58 08 55.86  .23293 1.1523 131.3 21.7 .084 132
2023 01 31 14  06 28 45.243   +58 07 50.13  .23279 1.1522 131.3 21.7 .085 128
2023 01 31 15  06 28 50.396   +58 06 44.22  .23265 1.1521 131.3 21.7 .087 123
2023 01 31 16  06 28 55.563   +58 05 38.14  .23252 1.1520 131.3 21.7 .089 119
2023 01 31 17  06 29 00.744   +58 04 31.88  .23238 1.1518 131.3 21.7 .092 114
2023 01 31 18  06 29 05.938   +58 03 25.44  .23224 1.1517 131.3 21.7 .095 110
2023 01 31 19  06 29 11.145   +58 02 18.82  .23210 1.1516 131.3 21.7 .099 106
2023 01 31 20  06 29 16.366   +58 01 12.03  .23197 1.1515 131.3 21.7 .103 102
2023 01 31 21  06 29 21.600   +58 00 05.05  .23183 1.1514 131.3 21.7 .108  99
2023 01 31 22  06 29 26.848   +57 58 57.90  .23169 1.1513 131.3 21.7 .113  96
2023 01 31 23  06 29 32.109   +57 57 50.57  .23155 1.1511 131.2 21.7 .118  93
2023 02 01 00  06 29 37.384   +57 56 43.06  .23141 1.1510 131.2 21.7 .124  90
2023 02 01 01  06 29 42.672   +57 55 35.37  .23128 1.1509 131.2 21.7 .130  87
2023 02 01 02  06 29 47.973   +57 54 27.50  .23114 1.1508 131.2 21.7 .136  85
2023 02 01 03  06 29 53.288   +57 53 19.46  .23100 1.1507 131.2 21.7 .143  83
2023 02 01 04  06 29 58.616   +57 52 11.23  .23087 1.1506 131.2 21.7 .150  80
2023 02 01 05  06 30 03.957   +57 51 02.82  .23073 1.1504 131.2 21.7 .157  78
2023 02 01 06  06 30 09.312   +57 49 54.23  .23059 1.1503 131.2 21.7 .164  77
2023 02 01 07  06 30 14.680   +57 48 45.46  .23045 1.1502 131.2 21.7 .172  75
2023 02 01 08  06 30 20.062   +57 47 36.51  .23032 1.1501 131.2 21.7 .179  73
2023 02 01 09  06 30 25.457   +57 46 27.38  .23018 1.1500 131.2 21.7 .187  72
2023 02 01 10  06 30 30.865   +57 45 18.06  .23004 1.1499 131.2 21.6 .196  70
2023 02 01 11  06 30 36.286   +57 44 08.57  .22991 1.1498 131.2 21.6 .204  69
2023 02 01 12  06 30 41.721   +57 42 58.89  .22977 1.1496 131.2 21.6 .213  67
2023 02 01 13  06 30 47.168   +57 41 49.03  .22964 1.1495 131.2 21.6 .221  66
2023 02 01 14  06 30 52.630   +57 40 38.99  .22950 1.1494 131.2 21.6 .230  65
2023 02 01 15  06 30 58.104   +57 39 28.76  .22936 1.1493 131.1 21.6 .239  64
2023 02 01 16  06 31 03.592   +57 38 18.36  .22923 1.1492 131.1 21.6 .249  63
2023 02 01 17  06 31 09.092   +57 37 07.76  .22909 1.1491 131.1 21.6 .258  62
2023 02 01 18  06 31 14.606   +57 35 56.99  .22895 1.1490 131.1 21.6 .268  61
2023 02 01 19  06 31 20.134   +57 34 46.03  .22882 1.1488 131.1 21.6 .278  60
2023 02 01 20  06 31 25.674   +57 33 34.89  .22868 1.1487 131.1 21.6 .288  59
2023 02 01 21  06 31 31.228   +57 32 23.56  .22855 1.1486 131.1 21.6 .298  58
2023 02 01 22  06 31 36.794   +57 31 12.05  .22841 1.1485 131.1 21.6 .308  57
2023 02 01 23  06 31 42.374   +57 30 00.35  .22828 1.1484 131.1 21.6 .319  56
2023 02 02 00  06 31 47.967   +57 28 48.47  .22814 1.1483 131.1 21.6 .330  56
2023 02 02 01  06 31 53.574   +57 27 36.41  .22801 1.1482 131.1 21.6 .341  55
2023 02 02 02  06 31 59.193   +57 26 24.15  .22787 1.1481 131.1 21.6 .352  54
2023 02 02 03  06 32 04.825   +57 25 11.72  .22774 1.1479 131.1 21.6 .363  53
2023 02 02 04  06 32 10.471   +57 23 59.09  .22760 1.1478 131.1 21.6 .374  53
2023 02 02 05  06 32 16.129   +57 22 46.28  .22747 1.1477 131.1 21.6 .386  52
2023 02 02 06  06 32 21.801   +57 21 33.28  .22733 1.1476 131.1 21.6 .398  51
2023 02 02 07  06 32 27.485   +57 20 20.10  .22720 1.1475 131.1 21.6 .410  51
2023 02 02 08  06 32 33.183   +57 19 06.73  .22706 1.1474 131.0 21.6 .422  50
2023 02 02 09  06 32 38.894   +57 17 53.17  .22693 1.1473 131.0 21.6 .434  50
2023 02 02 10  06 32 44.617   +57 16 39.43  .22679 1.1472 131.0 21.6 .446  49
2023 02 02 11  06 32 50.354   +57 15 25.49  .22666 1.1471 131.0 21.6 .459  48